TABLETSAT-AURORA (40017 NORAD) Tracking and Keplerian Element Data

This shows tracking and keplerian element data for the satellite.

Feedback or suggestion? Click here.




ElementValue
Catalog40017
NameTABLETSAT-AURORA
Epoch Orbit22200
Epoch Day198.90227284
Epoch Year2018
RAAN128.465
Inclination97.9569
Eccentricity0.0024986
Argument of Perigee98.1526
Mean Anonmoly262.2528
Mean Motion14.93122225
Decay Rate2.33E-06
L11 40017U 14033H 18198.90227284 .00000233 00000-0 27939-4 0 9996
L22 40017 97.9569 128.4650 0024986 98.1526 262.2528 14.93122225222009

Live tracking and technical data element details for TABLETSAT-AURORA (NORAD 40017). TABLETSAT-AURORA can be tracked NOW for your location showing map with azimuth and elevation plus other details from your city location.

Track the satellite on the map from your city or location and see movement details for azimuth, elevation, latitude, longitude, range, height, and movement on the map or in text.







IsCatalogInMostPopularTable: catalog: 40017, numindb: 52
Update: records affected: 1



GetName: 40017 TABLETSAT-AURORA

Hit Count: updated at: Fri, 20 Jul 2018 20:37:31 GMT